Simultaneous Nadir Overpasses (SNOs) Predictions

Prediction of SNOs between METOP-A and NOAA-19 Satellite Orbit:

Table of predicted SNOs for the next 14.0 days since TLE Epoch: 5/2/2014
Index Date (METOP-A) Time (METOP-A) Lat,Lon (METOP-A) SZA (METOP-A ) Date (NOAA-19) Time (NOAA-19) Lat,Lon (NOAA-19) SZA (NOAA-19 ) Distance(km) Time Diff (sec)
1 05/08/2014 12:21:44 74.30, -10.29 57.11 05/08/2014 12:20:32 74.31, -11.57 57.16 38.67 72
2 05/08/2014 13:12:31 -74.04, 156.37 123.15 05/08/2014 13:11:25 -74.04, 156.39 123.14 0.62 66
3 05/08/2014 14:03:11 74.04, -36.30 56.84 05/08/2014 14:02:30 74.04, -36.37 56.85 2.37 41
4 05/08/2014 14:53:53 -74.02, 130.98 123.19 05/08/2014 14:53:28 -74.01, 130.96 123.20 1.48 25
5 05/08/2014 15:44:34 73.97, -61.80 56.76 05/08/2014 15:44:33 74.00, -61.80 56.79 3.59 1
6 05/08/2014 16:35:16 -73.95, 105.48 123.27 05/08/2014 16:35:31 -73.97, 105.53 123.25 3.06 15
7 05/08/2014 17:25:56 73.95, -87.19 56.72 05/08/2014 17:26:36 73.97, -87.23 56.74 2.31 40
8 05/08/2014 18:16:38 -73.93, 80.09 123.31 05/08/2014 18:17:34 -73.94, 80.09 123.30 1.11 56
9 05/08/2014 19:07:23 73.68,-113.17 56.46 05/08/2014 19:08:34 73.69,-112.06 56.43 34.75 71




NCC Satellite Simultaneous Nadir Overpasses (SNOs) Prediction Service
